Weather History for KBIS - August, 2013

Change the Weather History Date:

Wednesday, August 28, 2013

  Actual Average Record
Temperature  
Mean Temperature 80 °F 66 °F  
Max Temperature 93 °F 80 °F 101 °F (1969)
Min Temperature 67 °F 53 °F 32 °F (1911)
Degree Days  
Heating Degree Days 0 2  
Month to date heating degree days 6 31  
Since 1 June heating degree days 114 141  
Since 1 July heating degree days 28 48  
Cooling Degree Days 15 4  
Month to date cooling degree days 167 166  
Year to date cooling degree days 448 470  
Since 1 June cooling degree days 436 453  
Growing Degree Days 30 (Base 50)    
Moisture  
Dew Point 65 °F    
Average Humidity 65    
Maximum Humidity 97    
Minimum Humidity 33    
Precipitation  
Precipitation 0.00 in 0.06 in 0.52 in (1907)
Month to date precipitation 0.43 2.09  
Year to date precipitation 15.37 13.62  
Snow  
Snow 0.00 in 0.00 in 0.00 in (2002)
Month to date snowfall 0.0 0.0  
Since 1 June snowfall 0.0 0.0  
Since 1 July snowfall 0.0 0.0  
Snow Depth 0.00 in    
Sea Level Pressure  
Sea Level Pressure 29.93 in    
Wind  
Wind Speed 4 mph (SE)    
Max Wind Speed 13 mph    
Max Gust Speed 16 mph    
Visibility 10 miles    
Events      
T = Trace of Precipitation, MM = Missing Value Source: NWS Daily Summary

Daily Weather History Graph

Daily Weather History Graph

Search for Another Location

Airport or City:

Trip Planner

Search our weather history database for the weather conditions in past years. The results will help you decide how hot, cold, wet, or windy it might be!

Date:

Astronomy

Aug. 28, 2013 Rise Set
Actual Time 6:57 AM CDT 8:29 PM CDT
Civil Twilight 6:26 AM CDT 9:01 PM CDT
Nautical Twilight 5:47 AM CDT 9:39 PM CDT
Astronomical Twilight 5:05 AM CDT 10:20 PM CDT
Moon No Moon Rise 3:19 PM CDT (8/28)
Length of Visible Light 14h 34m
Length of Day
13h 31m
Waning Gibbous, 47% of the Moon is Illuminated
Aug 28
Waning Gibbous
Sep 5
New
Sep 12
First Quarter
Sep 19
Full
Sep 26
Last Quarter

Hourly Weather History & Observations

Time (CDT) Temp. Heat Index Dew Point Humidity Pressure Visibility Wind Dir Wind Speed Gust Speed Precip Events Conditions
12:52 AM 72.0 °F - 69.1 °F 91% 29.93 in 10.0 mi Calm Calm - N/A   Clear
1:52 AM 69.1 °F - 68.0 °F 96% 29.95 in 6.0 mi SE 5.8 mph - N/A   Clear
2:52 AM 71.1 °F - 68.0 °F 90% 29.93 in 10.0 mi NNE 6.9 mph - N/A   Clear
3:52 AM 69.1 °F - 66.9 °F 93% 29.93 in 10.0 mi Calm Calm - N/A   Partly Cloudy
4:52 AM 69.1 °F - 66.0 °F 90% 29.95 in 10.0 mi West 4.6 mph - N/A   Overcast
5:52 AM 68.0 °F - 66.0 °F 93% 29.96 in 10.0 mi Calm Calm - N/A   Mostly Cloudy
6:52 AM 68.0 °F - 66.0 °F 93% 29.94 in 7.0 mi Calm Calm - N/A   Clear
7:52 AM 68.0 °F - 66.0 °F 93% 29.97 in 8.0 mi ESE 3.5 mph - N/A   Clear
8:52 AM 70.0 °F - 66.0 °F 87% 29.99 in 10.0 mi Calm Calm - N/A   Clear
9:52 AM 73.9 °F - 66.9 °F 79% 29.98 in 10.0 mi Calm Calm - N/A   Clear
10:52 AM 80.1 °F 82.7 °F 68.0 °F 67% 29.98 in 10.0 mi SE 5.8 mph - N/A   Clear
11:52 AM 82.9 °F 85.4 °F 66.9 °F 58% 29.98 in 10.0 mi ESE 6.9 mph - N/A   Clear
12:52 PM 87.1 °F 88.9 °F 64.9 °F 48% 29.95 in 10.0 mi Calm Calm - N/A   Clear
1:52 PM 89.1 °F 89.0 °F 61.0 °F 39% 29.94 in 10.0 mi Variable 3.5 mph - N/A   Clear
2:52 PM 91.9 °F 92.5 °F 62.1 °F 37% 29.93 in 10.0 mi West 6.9 mph - N/A   Clear
3:52 PM 93.0 °F 92.7 °F 60.1 °F 33% 29.92 in 10.0 mi South 11.5 mph - N/A   Clear
4:52 PM 91.9 °F 92.5 °F 62.1 °F 37% 29.91 in 10.0 mi SSW 8.1 mph - N/A   Clear
5:52 PM 91.0 °F 90.9 °F 61.0 °F 36% 29.90 in 10.0 mi Calm Calm - N/A   Clear
6:52 PM 90.0 °F 90.6 °F 63.0 °F 40% 29.89 in 10.0 mi SE 8.1 mph - N/A   Clear
7:52 PM 87.1 °F 87.8 °F 63.0 °F 44% 29.88 in 10.0 mi ESE 4.6 mph - N/A   Clear
8:52 PM 79.0 °F - 63.0 °F 58% 29.89 in 10.0 mi East 6.9 mph - N/A   Clear
9:52 PM 75.0 °F - 64.0 °F 69% 29.89 in 10.0 mi East 4.6 mph - N/A   Clear
10:52 PM 73.9 °F - 64.0 °F 71% 29.89 in 10.0 mi ENE 4.6 mph - N/A   Clear
11:52 PM 73.9 °F - 64.9 °F 73% 29.89 in 10.0 mi SSE 5.8 mph - N/A   Clear